CFG22W LDSP-LOWK

Flight info

Callsign CFG22W
Flight time 0h 45m
Altitude 20000
Route ZDA L868 DARZA DCT EBITI DCT ARLON DCT DIPSA DIPSA3A
Aircraft A320/M-SDE3FGHIRWY/LB1

Departure

Time 2026-04-21 16:02
Airport Split Saint Jerome Airport (LDSP)

Arrival

Time 2026-04-21 16:48
Airport Klagenfurt Airport (LOWK)
Time Latitude Longitude Altitude Speed Heading
2026-04-21 15:24 43.53726 16.29864 79 ft 0 kts 137°
2026-04-21 15:56 43.53726 16.29871 79 ft 1 kts 91°
2026-04-21 15:56 43.53735 16.29873 79 ft 3 kts 17°
2026-04-21 15:56 43.53805 16.29909 79 ft 14 kts 26°
2026-04-21 15:56 43.53870 16.29993 76 ft 13 kts 47°
2026-04-21 15:57 43.53944 16.30072 71 ft 4 kts 17°
2026-04-21 15:57 43.53945 16.30072 73 ft 0 kts 17°
2026-04-21 15:59 43.53985 16.30089 66 ft 9 kts 16°
2026-04-21 16:00 43.54037 16.30110 69 ft 7 kts 16°
2026-04-21 16:00 43.54082 16.30143 78 ft 9 kts 40°
2026-04-21 16:00 43.54161 16.30277 70 ft 25 kts 52°
2026-04-21 16:00 43.54270 16.30474 80 ft 26 kts 52°
2026-04-21 16:01 43.54388 16.30682 74 ft 29 kts 52°
2026-04-21 16:01 43.54512 16.30907 66 ft 32 kts 53°
2026-04-21 16:01 43.54564 16.31029 68 ft 2 kts 323°
2026-04-21 16:01 43.54549 16.30963 67 ft 20 kts 234°
2026-04-21 16:02 43.54313 16.30544 78 ft 92 kts 230°
2026-04-21 16:02 43.53803 16.29617 87 ft 148 kts 235°
2026-04-21 16:02 43.53186 16.28429 541 ft 154 kts 236°
2026-04-21 16:02 43.52506 16.27239 1084 ft 162 kts 231°
2026-04-21 16:03 43.51762 16.26040 1772 ft 164 kts 227°
2026-04-21 16:03 43.51020 16.24853 2469 ft 163 kts 227°
2026-04-21 16:03 43.50265 16.23629 2890 ft 179 kts 230°
2026-04-21 16:03 43.49381 16.22174 3386 ft 211 kts 231°
2026-04-21 16:04 43.48393 16.20528 4193 ft 237 kts 231°
2026-04-21 16:04 43.47668 16.19331 4723 ft 254 kts 231°
2026-04-21 16:04 43.46567 16.16359 5944 ft 273 kts 262°
2026-04-21 16:04 43.46537 16.14587 6734 ft 276 kts 280°
2026-04-21 16:05 43.47605 16.11430 8396 ft 280 kts 315°
2026-04-21 16:05 43.49110 16.09706 9619 ft 285 kts 325°
2026-04-21 16:05 43.50738 16.08022 10591 ft 299 kts 322°
2026-04-21 16:05 43.52433 16.06275 11505 ft 314 kts 321°
2026-04-21 16:06 43.54269 16.04375 11860 ft 345 kts 322°
2026-04-21 16:06 43.55602 16.02995 11989 ft 365 kts 322°
2026-04-21 16:06 43.57585 16.00833 13198 ft 358 kts 319°
2026-04-21 16:06 43.59463 15.98619 14488 ft 353 kts 317°
2026-04-21 16:07 43.61875 15.95630 15871 ft 354 kts 315°
2026-04-21 16:07 43.63107 15.94077 16499 ft 356 kts 314°
2026-04-21 16:07 43.64937 15.91768 17374 ft 358 kts 314°
2026-04-21 16:07 43.66789 15.89447 18175 ft 361 kts 313°
2026-04-21 16:08 43.70560 15.84776 19563 ft 368 kts 313°
2026-04-21 16:08 43.72479 15.82416 20171 ft 372 kts 313°
2026-04-21 16:08 43.74420 15.80026 20746 ft 375 kts 313°
2026-04-21 16:09 43.76356 15.77645 21279 ft 379 kts 313°
2026-04-21 16:09 43.78334 15.75215 21781 ft 382 kts 313°
2026-04-21 16:09 43.80330 15.72754 22254 ft 385 kts 313°
2026-04-21 16:09 43.82334 15.70278 22701 ft 388 kts 313°
2026-04-21 16:10 43.84357 15.67777 23122 ft 391 kts 313°
2026-04-21 16:10 43.86388 15.65264 23516 ft 393 kts 312°
2026-04-21 16:10 43.88433 15.62730 23914 ft 396 kts 312°
2026-04-21 16:10 43.90491 15.60175 24286 ft 398 kts 312°
2026-04-21 16:11 43.92556 15.57605 24695 ft 400 kts 312°
2026-04-21 16:11 43.94630 15.55024 25099 ft 401 kts 312°
2026-04-21 16:11 43.96708 15.52440 25502 ft 402 kts 313°
2026-04-21 16:11 43.98790 15.49849 25900 ft 402 kts 313°
2026-04-21 16:12 44.00846 15.47292 26668 ft 393 kts 313°
2026-04-21 16:12 44.02871 15.44765 27208 ft 390 kts 313°
2026-04-21 16:12 44.04887 15.42245 27632 ft 390 kts 313°
2026-04-21 16:12 44.06962 15.39791 27899 ft 394 kts 318°
2026-04-21 16:13 44.09236 15.37779 27949 ft 392 kts 326°
2026-04-21 16:13 44.11750 15.36264 27941 ft 396 kts 335°
2026-04-21 16:13 44.14468 15.35421 27942 ft 403 kts 343°
2026-04-21 16:13 44.17245 15.34844 27946 ft 404 kts 344°
2026-04-21 16:14 44.20031 15.34304 27952 ft 404 kts 344°
2026-04-21 16:14 44.22822 15.33780 27954 ft 405 kts 345°
2026-04-21 16:14 44.25613 15.33260 27956 ft 404 kts 345°
2026-04-21 16:14 44.28398 15.32739 27951 ft 404 kts 344°
2026-04-21 16:15 44.31185 15.32211 27952 ft 404 kts 344°
2026-04-21 16:15 44.33968 15.31675 27951 ft 404 kts 344°
2026-04-21 16:15 44.36749 15.31128 27951 ft 404 kts 344°
2026-04-21 16:15 44.39528 15.30580 27954 ft 403 kts 344°
2026-04-21 16:16 44.42310 15.30031 27959 ft 403 kts 344°
2026-04-21 16:16 44.45084 15.29486 27956 ft 403 kts 344°
2026-04-21 16:16 44.47828 15.28951 27958 ft 402 kts 344°
2026-04-21 16:16 44.50602 15.28408 27957 ft 402 kts 344°
2026-04-21 16:17 44.53375 15.27860 27957 ft 403 kts 344°
2026-04-21 16:17 44.56153 15.27309 27957 ft 402 kts 344°
2026-04-21 16:17 44.58927 15.26760 27961 ft 403 kts 344°
2026-04-21 16:17 44.61710 15.26211 27963 ft 403 kts 344°
2026-04-21 16:18 44.64492 15.25662 27966 ft 403 kts 344°
2026-04-21 16:18 44.67266 15.25114 27966 ft 403 kts 344°
2026-04-21 16:18 44.70040 15.24567 27971 ft 403 kts 344°
2026-04-21 16:18 44.72818 15.24023 27972 ft 402 kts 344°
2026-04-21 16:19 44.75590 15.23479 27974 ft 402 kts 344°
2026-04-21 16:19 44.78358 15.22931 27975 ft 402 kts 344°
2026-04-21 16:19 44.81080 15.22385 27979 ft 401 kts 344°
2026-04-21 16:19 44.83881 15.21823 27978 ft 401 kts 344°
2026-04-21 16:20 44.86648 15.21270 27980 ft 401 kts 344°
2026-04-21 16:20 44.89413 15.20720 27982 ft 401 kts 344°
2026-04-21 16:20 44.92176 15.20170 27981 ft 401 kts 344°
2026-04-21 16:20 44.94904 15.19627 27986 ft 401 kts 344°
2026-04-21 16:21 44.97646 15.19082 28002 ft 391 kts 344°
2026-04-21 16:21 45.00280 15.18570 28005 ft 375 kts 344°
2026-04-21 16:21 45.02848 15.18065 28004 ft 370 kts 343°
2026-04-21 16:21 45.05383 15.17552 27994 ft 368 kts 342°
2026-04-21 16:22 45.07849 15.16740 28011 ft 361 kts 336°
2026-04-21 16:22 45.12672 15.14840 28017 ft 361 kts 337°
2026-04-21 16:23 45.17512 15.12960 28016 ft 361 kts 337°
2026-04-21 16:23 45.22357 15.11100 28014 ft 361 kts 337°
2026-04-21 16:24 45.27213 15.09261 28017 ft 361 kts 337°
2026-04-21 16:24 45.32044 15.07418 28015 ft 359 kts 337°
2026-04-21 16:25 45.36877 15.05554 28014 ft 360 kts 337°
2026-04-21 16:25 45.41712 15.03693 28022 ft 360 kts 337°
2026-04-21 16:26 45.46544 15.01839 28023 ft 360 kts 337°
2026-04-21 16:26 45.51517 15.00604 28027 ft 371 kts 350°
2026-04-21 16:27 45.56686 15.00419 28031 ft 372 kts 350°
2026-04-21 16:27 45.61825 15.00231 28032 ft 372 kts 350°
2026-04-21 16:28 45.66997 15.00037 28041 ft 371 kts 350°
2026-04-21 16:28 45.72166 14.99838 28044 ft 371 kts 350°
2026-04-21 16:29 45.77325 14.99640 28048 ft 371 kts 350°
2026-04-21 16:29 45.82481 14.99438 28053 ft 370 kts 350°
2026-04-21 16:29 45.85023 14.99346 27855 ft 361 kts 350°
2026-04-21 16:30 45.87514 14.99257 27607 ft 357 kts 350°
2026-04-21 16:30 45.89989 14.99167 27352 ft 354 kts 350°
2026-04-21 16:30 45.92447 14.99070 27095 ft 353 kts 350°
2026-04-21 16:30 45.94900 14.98968 26856 ft 352 kts 350°
2026-04-21 16:31 45.97343 14.98871 26603 ft 351 kts 350°
2026-04-21 16:31 45.99782 14.98779 26351 ft 350 kts 350°
2026-04-21 16:31 46.02205 14.98687 26100 ft 348 kts 351°
2026-04-21 16:31 46.04622 14.98595 25853 ft 346 kts 352°
2026-04-21 16:32 46.07025 14.98664 25497 ft 346 kts 358°
2026-04-21 16:32 46.09420 14.98962 25051 ft 344 kts 358°
2026-04-21 16:32 46.11800 14.99255 24571 ft 343 kts 358°
2026-04-21 16:32 46.14178 14.99547 24113 ft 341 kts 359°
2026-04-21 16:33 46.16536 14.99843 23647 ft 340 kts 359°
2026-04-21 16:33 46.18883 15.00138 23189 ft 338 kts 359°
2026-04-21 16:33 46.21225 15.00433 22731 ft 337 kts 359°
2026-04-21 16:33 46.23533 15.00724 22289 ft 336 kts 359°
2026-04-21 16:34 46.25856 15.01012 21842 ft 335 kts 360°
2026-04-21 16:34 46.28171 15.01299 21400 ft 333 kts 360°
2026-04-21 16:34 46.30470 15.01586 20967 ft 330 kts
2026-04-21 16:34 46.32755 15.01875 20538 ft 329 kts
2026-04-21 16:35 46.35029 15.02161 20109 ft 328 kts
2026-04-21 16:35 46.37297 15.02444 19687 ft 327 kts
2026-04-21 16:35 46.39560 15.02708 19313 ft 323 kts 358°
2026-04-21 16:35 46.41752 15.02500 19050 ft 312 kts 346°
2026-04-21 16:36 46.43812 15.01644 18697 ft 306 kts 336°
2026-04-21 16:36 46.45793 15.00546 18279 ft 302 kts 336°
2026-04-21 16:36 46.47748 14.99469 17597 ft 300 kts 336°
2026-04-21 16:36 46.49693 14.98402 16925 ft 297 kts 337°
2026-04-21 16:37 46.51623 14.97346 16284 ft 295 kts 337°
2026-04-21 16:37 46.53536 14.96300 15649 ft 292 kts 337°
2026-04-21 16:37 46.55431 14.95260 15014 ft 290 kts 337°
2026-04-21 16:37 46.57301 14.94203 14380 ft 287 kts 333°
2026-04-21 16:38 46.58923 14.92586 13760 ft 282 kts 315°
2026-04-21 16:38 46.60082 14.90320 13105 ft 280 kts 297°
2026-04-21 16:38 46.60686 14.87634 12444 ft 281 kts 279°
2026-04-21 16:38 46.60715 14.84796 11757 ft 282 kts 268°
2026-04-21 16:39 46.60626 14.81966 11158 ft 278 kts 266°
2026-04-21 16:39 46.60539 14.79200 10335 ft 277 kts 265°
2026-04-21 16:39 46.60446 14.76375 9108 ft 283 kts 268°
2026-04-21 16:39 46.60351 14.73525 8089 ft 279 kts 268°
2026-04-21 16:40 46.60257 14.70828 7517 ft 259 kts 268°
2026-04-21 16:40 46.60168 14.68240 6681 ft 254 kts 268°
2026-04-21 16:40 46.60081 14.65693 5801 ft 251 kts 268°
2026-04-21 16:40 46.59996 14.63178 4929 ft 248 kts 268°
2026-04-21 16:41 46.59940 14.61523 4385 ft 246 kts 268°
2026-04-21 16:41 46.59829 14.58404 4067 ft 217 kts 268°
2026-04-21 16:41 46.59805 14.56262 3998 ft 207 kts 279°
2026-04-21 16:41 46.60111 14.54233 3983 ft 205 kts 287°
2026-04-21 16:42 46.60507 14.52252 3783 ft 203 kts 288°
2026-04-21 16:42 46.60901 14.50321 3556 ft 193 kts 289°
2026-04-21 16:42 46.61270 14.48507 3283 ft 180 kts 289°
2026-04-21 16:42 46.61585 14.46850 3225 ft 164 kts 280°
2026-04-21 16:43 46.61426 14.45242 3223 ft 162 kts 251°
2026-04-21 16:43 46.61011 14.43761 3219 ft 160 kts 246°
2026-04-21 16:43 46.60550 14.42291 3221 ft 160 kts 245°
2026-04-21 16:43 46.60071 14.40789 3236 ft 170 kts 245°
2026-04-21 16:44 46.59646 14.39162 3214 ft 174 kts 265°
2026-04-21 16:44 46.59928 14.37484 3220 ft 176 kts 301°
2026-04-21 16:44 46.60462 14.35863 3237 ft 177 kts 292°
2026-04-21 16:44 46.60852 14.34235 3215 ft 165 kts 290°
2026-04-21 16:45 46.61201 14.32683 3212 ft 160 kts 290°
2026-04-21 16:45 46.61543 14.31151 3214 ft 158 kts 290°
2026-04-21 16:45 46.61882 14.29630 3219 ft 158 kts 289°
2026-04-21 16:45 46.62224 14.28111 3220 ft 158 kts 290°
2026-04-21 16:46 46.62563 14.26594 3194 ft 159 kts 290°
2026-04-21 16:46 46.63160 14.25320 2945 ft 151 kts 331°
2026-04-21 16:46 46.64104 14.24651 2766 ft 151 kts 348°
2026-04-21 16:46 46.65075 14.24758 2526 ft 141 kts 45°
2026-04-21 16:47 46.65485 14.26006 2140 ft 143 kts 86°
2026-04-21 16:47 46.65352 14.27417 1859 ft 135 kts 104°
2026-04-21 16:47 46.65206 14.28794 1800 ft 144 kts 98°
2026-04-21 16:47 46.64976 14.30225 1806 ft 146 kts 107°
2026-04-21 16:48 46.64678 14.31639 1622 ft 142 kts 107°
2026-04-21 16:48 46.64409 14.32924 1466 ft 117 kts 110°
2026-04-21 16:48 46.64319 14.33404 1463 ft 22 kts 103°
2026-04-21 16:48 46.64252 14.33775 1461 ft 52 kts 106°
2026-04-21 16:49 46.64148 14.34312 1464 ft 52 kts 105°
2026-04-21 16:49 46.64049 14.34792 1461 ft 48 kts 106°
2026-04-21 16:49 46.63965 14.35222 1461 ft 32 kts 105°
2026-04-21 16:49 46.63928 14.35444 1460 ft 9 kts 171°
2026-04-21 16:50 46.63943 14.35322 1458 ft 27 kts 285°
2026-04-21 16:50 46.64027 14.34916 1461 ft 60 kts 285°
2026-04-21 16:50 46.64174 14.34170 1465 ft 92 kts 287°
2026-04-21 16:50 46.64365 14.33233 1460 ft 94 kts 285°
2026-04-21 16:51 46.64609 14.32565 1461 ft 60 kts 332°
2026-04-21 16:51 46.64775 14.32530 1464 ft 0 kts 17°
2026-04-21 16:52 46.64843 14.32539 1464 ft 0 kts 75°